Time,TemperatureF,DewpointF,PressureIn,WindDirection,WindDirectionDegrees,WindSpeedMPH,WindSpeedGustMPH,Humidity,HourlyPrecipIn,Conditions,Clouds,dailyrainin,SoftwareType,DateUTC
2014-01-05 00:08:00,31.6,30.1,29.98,NNW,337,0.0,-999.0,94,-99.99,,,0.00,Acu-Link.com,2014-01-05 05:08:00,
2014-01-05 00:23:00,32.0,30.5,29.98,NE,45,0.0,-999.0,94,-99.99,,,0.00,Acu-Link.com,2014-01-05 05:23:00,
2014-01-05 00:38:00,32.4,31.1,29.98,East,90,0.0,-999.0,95,-99.99,,,0.00,Acu-Link.com,2014-01-05 05:38:00,
2014-01-05 00:53:00,32.9,31.4,29.98,ENE,67,0.0,-999.0,94,-99.99,,,0.00,Acu-Link.com,2014-01-05 05:53:00,
2014-01-05 01:09:00,33.1,31.6,29.98,SE,135,0.0,-999.0,94,-99.99,,,0.00,Acu-Link.com,2014-01-05 06:09:00,
2014-01-05 01:24:00,33.6,32.1,29.97,SSE,157,0.0,-999.0,94,-99.99,,,0.00,Acu-Link.com,2014-01-05 06:24:00,
2014-01-05 01:39:00,34.0,32.2,29.96,SW,225,0.0,-999.0,93,-99.99,,,0.00,Acu-Link.com,2014-01-05 06:39:00,
2014-01-05 01:54:00,34.3,32.2,29.96,SW,225,0.0,-999.0,92,-99.99,,,0.00,Acu-Link.com,2014-01-05 06:54:00,
2014-01-05 02:09:00,34.7,32.3,29.95,WSW,247,0.0,-999.0,91,-99.99,,,0.00,Acu-Link.com,2014-01-05 07:09:00,
2014-01-05 02:24:00,35.1,32.7,29.94,SSW,202,0.0,-999.0,91,-99.99,,,0.00,Acu-Link.com,2014-01-05 07:24:00,
2014-01-05 02:40:00,35.2,32.8,29.94,SSE,157,0.0,-999.0,91,-99.99,,,0.00,Acu-Link.com,2014-01-05 07:40:00,
2014-01-05 02:55:00,35.8,33.4,29.95,SW,225,0.0,-999.0,91,-99.99,,,0.00,Acu-Link.com,2014-01-05 07:55:00,
2014-01-05 03:10:00,36.0,33.9,29.95,East,90,0.0,-999.0,92,-99.99,,,0.00,Acu-Link.com,2014-01-05 08:10:00,
2014-01-05 03:25:00,36.1,34.3,29.96,ENE,67,0.0,-999.0,93,-99.99,,,0.00,Acu-Link.com,2014-01-05 08:25:00,
2014-01-05 03:40:00,36.3,34.7,29.95,East,90,0.0,-999.0,94,-99.99,,,0.00,Acu-Link.com,2014-01-05 08:40:00,
2014-01-05 03:55:00,36.5,34.7,29.96,East,90,0.0,-999.0,93,-99.99,,,0.00,Acu-Link.com,2014-01-05 08:55:00,
2014-01-05 04:10:00,36.5,34.9,29.95,East,90,0.0,-999.0,94,-99.99,,,0.00,Acu-Link.com,2014-01-05 09:10:00,
2014-01-05 04:25:00,36.5,35.2,29.95,ESE,112,0.0,-999.0,95,-99.99,,,0.00,Acu-Link.com,2014-01-05 09:25:00,
2014-01-05 04:40:00,36.7,35.4,29.95,WNW,292,0.0,-999.0,95,-99.99,,,0.00,Acu-Link.com,2014-01-05 09:40:00,
2014-01-05 04:56:00,36.9,35.6,29.95,East,90,0.0,-999.0,95,-99.99,,,0.00,Acu-Link.com,2014-01-05 09:56:00,
2014-01-05 05:11:00,36.9,35.6,29.94,SSW,202,0.0,-999.0,95,-99.99,,,0.00,Acu-Link.com,2014-01-05 10:11:00,
2014-01-05 05:26:00,36.9,35.6,29.94,East,90,0.0,-999.0,95,-99.99,,,0.00,Acu-Link.com,2014-01-05 10:26:00,
2014-01-05 05:41:00,36.9,35.6,29.94,ENE,67,0.0,-999.0,95,-99.99,,,0.00,Acu-Link.com,2014-01-05 10:41:00,
2014-01-05 05:56:00,36.9,35.9,29.94,ESE,112,0.0,-999.0,96,-99.99,,,0.00,Acu-Link.com,2014-01-05 10:56:00,
2014-01-05 06:11:00,36.9,35.9,29.93,ESE,112,0.0,-999.0,96,-99.99,,,0.00,Acu-Link.com,2014-01-05 11:11:00,
2014-01-05 06:26:00,36.9,35.9,29.91,SE,135,0.0,-999.0,96,-99.99,,,0.00,Acu-Link.com,2014-01-05 11:26:00,
2014-01-05 06:42:00,36.9,36.1,29.91,SSE,157,0.0,-999.0,97,-99.99,,,0.00,Acu-Link.com,2014-01-05 11:42:00,
2014-01-05 06:57:00,37.0,36.0,29.91,West,270,2.7,-999.0,96,-99.99,,,0.00,Acu-Link.com,2014-01-05 11:57:00,
2014-01-05 07:12:00,36.7,35.7,29.90,South,180,0.0,-999.0,96,-99.99,,,0.00,Acu-Link.com,2014-01-05 12:12:00,
2014-01-05 07:27:00,36.5,35.7,29.90,West,270,0.0,-999.0,97,-99.99,,,0.00,Acu-Link.com,2014-01-05 12:27:00,
2014-01-05 07:42:00,35.6,35.1,29.90,WSW,247,0.0,-999.0,98,-99.99,,,0.00,Acu-Link.com,2014-01-05 12:42:00,
2014-01-05 07:57:00,34.5,34.2,29.90,South,180,0.0,-999.0,99,-99.99,,,0.00,Acu-Link.com,2014-01-05 12:57:00,
2014-01-05 08:12:00,34.2,33.9,29.90,East,90,0.0,-999.0,99,-99.99,,,0.00,Acu-Link.com,2014-01-05 13:12:00,
2014-01-05 08:27:00,34.0,33.7,29.90,East,90,0.0,-999.0,99,-99.99,,,0.00,Acu-Link.com,2014-01-05 13:27:00,
2014-01-05 08:42:00,34.2,33.9,29.90,East,90,0.0,-999.0,99,-99.99,,,0.00,Acu-Link.com,2014-01-05 13:42:00,
2014-01-05 08:58:00,35.1,34.8,29.90,East,90,0.0,-999.0,99,-99.99,,,0.00,Acu-Link.com,2014-01-05 13:58:00,
2014-01-05 09:13:00,36.3,36.0,29.90,ESE,112,0.0,-999.0,99,-99.99,,,0.00,Acu-Link.com,2014-01-05 14:13:00,
2014-01-05 09:28:00,39.0,36.9,29.89,SSW,202,3.7,-999.0,92,-99.99,,,0.00,Acu-Link.com,2014-01-05 14:28:00,
2014-01-05 09:43:00,41.4,38.1,29.88,South,180,2.7,-999.0,88,-99.99,,,0.00,Acu-Link.com,2014-01-05 14:43:00,
2014-01-05 09:58:00,44.8,39.3,29.89,East,90,4.7,-999.0,81,-99.99,,,0.00,Acu-Link.com,2014-01-05 14:58:00,
2014-01-05 10:13:00,45.7,39.6,29.88,SSW,202,5.8,-999.0,79,-99.99,,,0.00,Acu-Link.com,2014-01-05 15:13:00,
2014-01-05 10:29:00,46.6,39.8,29.87,South,180,2.2,-999.0,77,-99.99,,,0.00,Acu-Link.com,2014-01-05 15:29:00,
2014-01-05 10:44:00,45.9,39.8,29.86,SSW,202,2.2,-999.0,79,-99.99,,,0.00,Acu-Link.com,2014-01-05 15:44:00,
2014-01-05 10:59:00,46.4,39.9,29.86,South,180,2.7,-999.0,78,-99.99,,,0.00,Acu-Link.com,2014-01-05 15:59:00,
2014-01-05 11:14:00,49.3,41.0,29.84,SSW,202,2.2,-999.0,73,-99.99,,,0.00,Acu-Link.com,2014-01-05 16:14:00,
2014-01-05 11:29:00,53.1,42.0,29.82,SW,225,4.2,-999.0,66,-99.99,,,0.00,Acu-Link.com,2014-01-05 16:29:00,
2014-01-05 11:44:00,52.9,42.6,29.81,WSW,247,2.7,-999.0,68,-99.99,,,0.00,Acu-Link.com,2014-01-05 16:44:00,
2014-01-05 11:59:00,50.7,42.4,29.80,South,180,4.7,-999.0,73,-99.99,,,0.00,Acu-Link.com,2014-01-05 16:59:00,
2014-01-05 12:14:00,52.3,43.9,29.78,SW,225,1.7,-999.0,73,-99.99,,,0.00,Acu-Link.com,2014-01-05 17:14:00,
2014-01-05 12:29:00,52.5,44.5,29.75,WNW,292,4.2,-999.0,74,-99.99,,,0.00,Acu-Link.com,2014-01-05 17:29:00,
2014-01-05 12:45:00,52.7,44.6,29.74,SSE,157,3.2,-999.0,74,-99.99,,,0.00,Acu-Link.com,2014-01-05 17:45:00,
2014-01-05 13:00:00,55.2,45.6,29.71,SSE,157,3.7,-999.0,70,-99.99,,,0.00,Acu-Link.com,2014-01-05 18:00:00,
2014-01-05 13:15:00,56.5,46.5,29.70,South,180,2.2,-999.0,69,-99.99,,,0.00,Acu-Link.com,2014-01-05 18:15:00,
2014-01-05 13:30:00,58.6,46.9,29.68,SSW,202,3.2,-999.0,65,-99.99,,,0.00,Acu-Link.com,2014-01-05 18:30:00,
2014-01-05 13:45:00,55.6,46.3,29.68,West,270,3.2,-999.0,71,-99.99,,,0.00,Acu-Link.com,2014-01-05 18:45:00,
2014-01-05 14:00:00,58.6,47.7,29.67,SSW,202,3.7,-999.0,67,-99.99,,,0.00,Acu-Link.com,2014-01-05 19:00:00,
2014-01-05 14:15:00,60.6,47.9,29.66,WSW,247,2.7,-999.0,63,-99.99,,,0.00,Acu-Link.com,2014-01-05 19:15:00,
2014-01-05 14:30:00,57.0,46.9,29.66,SSW,202,1.1,-999.0,69,-99.99,,,0.00,Acu-Link.com,2014-01-05 19:30:00,
2014-01-05 14:45:00,56.5,47.2,29.64,West,270,4.2,-999.0,71,-99.99,,,0.00,Acu-Link.com,2014-01-05 19:45:00,
2014-01-05 15:01:00,56.3,47.4,29.64,SW,225,3.7,-999.0,72,-99.99,,,0.00,Acu-Link.com,2014-01-05 20:01:00,
2014-01-05 15:16:00,55.6,47.1,29.64,SSW,202,4.7,-999.0,73,-99.99,,,0.00,Acu-Link.com,2014-01-05 20:16:00,
2014-01-05 15:31:00,54.1,46.4,29.63,SSW,202,2.7,-999.0,75,-99.99,,,0.00,Acu-Link.com,2014-01-05 20:31:00,
2014-01-05 15:46:00,53.4,46.4,29.63,South,180,2.2,-999.0,77,-99.99,,,0.00,Acu-Link.com,2014-01-05 20:46:00,
2014-01-05 16:01:00,53.4,46.0,29.62,SSE,157,5.3,-999.0,76,-99.99,,,0.00,Acu-Link.com,2014-01-05 21:01:00,
2014-01-05 16:16:00,54.0,46.3,29.62,SSW,202,4.2,-999.0,75,-99.99,,,0.00,Acu-Link.com,2014-01-05 21:16:00,
2014-01-05 16:31:00,53.8,46.4,29.60,SSW,202,4.7,-999.0,76,-99.99,,,0.00,Acu-Link.com,2014-01-05 21:31:00,
2014-01-05 16:46:00,53.6,46.2,29.60,SSW,202,4.2,-999.0,76,-99.99,,,0.00,Acu-Link.com,2014-01-05 21:46:00,
2014-01-05 17:01:00,53.6,46.6,29.60,SSE,157,5.3,-999.0,77,-99.99,,,0.00,Acu-Link.com,2014-01-05 22:01:00,
2014-01-05 17:17:00,54.7,47.3,29.59,SSW,202,8.9,-999.0,76,-99.99,,,0.00,Acu-Link.com,2014-01-05 22:17:00,
2014-01-05 17:32:00,54.3,47.2,29.59,SSE,157,4.7,-999.0,77,-99.99,,,0.00,Acu-Link.com,2014-01-05 22:32:00,
2014-01-05 17:47:00,54.0,47.3,29.60,WNW,292,5.8,-999.0,78,-99.99,,,0.00,Acu-Link.com,2014-01-05 22:47:00,
2014-01-05 18:02:00,53.6,47.2,29.60,NE,45,2.7,-999.0,79,-99.99,,,0.00,Acu-Link.com,2014-01-05 23:02:00,
2014-01-05 18:17:00,53.1,47.4,29.58,SSE,157,5.8,-999.0,81,-99.99,,,0.00,Acu-Link.com,2014-01-05 23:17:00,
2014-01-05 18:32:00,52.9,48.2,29.58,South,180,7.3,-999.0,84,-99.99,,,0.00,Acu-Link.com,2014-01-05 23:32:00,
2014-01-05 18:47:00,53.1,48.7,29.56,West,270,6.8,-999.0,85,-99.99,,,0.00,Acu-Link.com,2014-01-05 23:47:00,
2014-01-05 19:03:00,52.9,48.8,29.56,NNE,22,7.8,-999.0,86,-99.99,,,0.00,Acu-Link.com,2014-01-06 00:03:00,
2014-01-05 19:18:00,53.2,49.4,29.55,South,180,6.3,-999.0,87,-99.99,,,0.00,Acu-Link.com,2014-01-06 00:18:00,
2014-01-05 19:33:00,53.1,49.3,29.55,SE,135,4.7,-999.0,87,-99.99,,,0.00,Acu-Link.com,2014-01-06 00:33:00,
2014-01-05 19:48:00,53.2,49.4,29.54,South,180,5.3,-999.0,87,-99.99,,,0.00,Acu-Link.com,2014-01-06 00:48:00,
2014-01-05 20:03:00,52.7,49.5,29.54,SSE,157,3.2,-999.0,89,-99.99,,,0.00,Acu-Link.com,2014-01-06 01:03:00,
2014-01-05 20:18:00,52.7,50.1,29.53,SSW,202,7.8,-999.0,91,-99.99,,,0.00,Acu-Link.com,2014-01-06 01:18:00,
2014-01-05 20:33:00,52.9,50.3,29.53,SSW,202,11.4,-999.0,91,-99.99,,,0.00,Acu-Link.com,2014-01-06 01:33:00,
2014-01-05 20:48:00,52.5,50.8,29.52,SSW,202,7.3,-999.0,94,-99.99,,,0.00,Acu-Link.com,2014-01-06 01:48:00,
2014-01-05 21:03:00,52.0,51.2,29.52,SE,135,7.8,-999.0,97,-99.99,,,0.00,Acu-Link.com,2014-01-06 02:03:00,
2014-01-05 21:19:00,51.6,51.3,29.51,WSW,247,4.2,-999.0,99,-99.99,,,0.00,Acu-Link.com,2014-01-06 02:19:00,
2014-01-05 21:34:00,51.3,51.0,29.50,South,180,4.7,-999.0,99,-99.99,,,0.00,Acu-Link.com,2014-01-06 02:34:00,
2014-01-05 21:49:00,51.3,51.0,29.49,South,180,5.8,-999.0,99,-99.99,,,0.00,Acu-Link.com,2014-01-06 02:49:00,
2014-01-05 22:04:00,51.1,50.8,29.50,ESE,112,4.7,-999.0,99,-99.99,,,0.01,Acu-Link.com,2014-01-06 03:04:00,
2014-01-05 22:19:00,50.7,50.4,29.50,South,180,6.3,-999.0,99,-99.99,,,0.01,Acu-Link.com,2014-01-06 03:19:00,
2014-01-05 22:34:00,50.2,49.9,29.55,West,270,6.3,-999.0,99,-99.99,,,0.02,Acu-Link.com,2014-01-06 03:34:00,
2014-01-05 22:49:00,48.2,47.9,29.57,West,270,11.4,-999.0,99,-99.99,,,0.07,Acu-Link.com,2014-01-06 03:49:00,
2014-01-05 23:04:00,44.6,44.3,29.61,West,270,5.8,-999.0,99,-99.99,,,0.09,Acu-Link.com,2014-01-06 04:04:00,
2014-01-05 23:20:00,42.4,41.6,29.61,NNE,22,5.3,-999.0,97,-99.99,,,0.11,Acu-Link.com,2014-01-06 04:20:00,
2014-01-05 23:35:00,41.4,40.9,29.61,NNW,337,6.3,-999.0,98,-99.99,,,0.12,Acu-Link.com,2014-01-06 04:35:00,
2014-01-05 23:50:00,40.6,40.3,29.64,North,0,2.7,-999.0,99,-99.99,,,0.16,Acu-Link.com,2014-01-06 04:50:00,